This demonstration page uses our WeatherBlox Daily Observations layout. Learn more.

Left ArrowRight Arrow

53.62937, 11.41316

Hourly Observations for July 20, 2019

Temp ( °F °C ) Dew Point ( °F °C ) Humidity (%) Winds ( mph kmh ) Pressure ( in mb ) Visibility ( mi km ) Precip ( " mm )
6:50 am 06:50 Mostly Sunny 61 16 55 13 83 83 SSE 3 6 29.91 1013 7 11 N/A
7:20 am 07:20 Mostly Sunny 63 17 57 14 83 83 VRB 1 2 29.91 1013 7 11 N/A
7:50 am 07:50 Mostly Sunny 64 18 57 14 78 78 SSE 3 6 29.91 1013 7 11 N/A
8:20 am 08:20 Mostly Sunny 66 19 54 12 64 64 SSE 5 7 29.91 1013 7 11 N/A
8:50 am 08:50 Mostly Sunny 70 21 59 15 69 69 SE 7 11 29.91 1013 7 11 N/A
9:20 am 09:20 Mostly Sunny 72 22 59 15 65 65 SSE 9 15 29.91 1013 7 11 N/A
9:50 am 09:50 Mostly Sunny 73 23 59 15 61 61 SSE 8 13 29.91 1013 7 11 N/A
10:20 am 10:20 Mostly Sunny 73 23 59 15 61 61 S 8 13 29.91 1013 7 11 N/A
10:50 am 10:50 Mostly Sunny 73 23 59 15 61 61 S 8 13 29.88 1012 7 11 N/A
11:20 am 11:20 Mostly Sunny 77 25 59 15 54 54 SSE 8 13 29.88 1012 7 11 N/A
11:50 am 11:50 Mostly Sunny 77 25 57 14 51 51 S 7 11 29.88 1012 7 11 N/A
12:20 pm 12:20 Mostly Sunny 79 26 57 14 48 48 S 12 19 29.88 1012 7 11 N/A
12:50 pm 12:50 Mostly Sunny 81 27 57 14 45 45 SSE 10 17 29.85 1011 7 11 N/A
1:20 pm 13:20 Mostly Sunny 79 26 55 13 45 45 SSE 12 19 29.85 1011 7 11 N/A
1:50 pm 13:50 Mostly Sunny 82 28 57 14 42 42 SSE 9 15 29.85 1011 7 11 N/A
2:20 pm 14:20 Mostly Sunny 82 28 55 13 40 40 SSE 8 13 29.85 1011 7 11 N/A
2:50 pm 14:50 Mostly Sunny 82 28 55 13 40 40 S 12 19 29.85 1011 7 11 N/A
3:20 pm 15:20 Mostly Sunny 84 29 55 13 37 37 SSE 12 19 29.82 1010 7 11 N/A
3:50 pm 15:50 Mostly Sunny 86 30 57 14 38 38 SSE 9 15 29.82 1010 7 11 N/A
4:20 pm 16:20 Mostly Sunny 84 29 55 13 37 37 S 10 17 29.79 1009 7 11 N/A
4:50 pm 16:50 Mostly Sunny 82 28 55 13 40 40 SSW 10 17 29.79 1009 7 11 N/A
5:50 pm 17:50 Mostly Cloudy with Showers Nearby 72 22 57 14 61 61 WSW 25 41 29.85 1011 5 8 N/A
6:20 pm 18:20 Mostly Cloudy with Thunderstorms 63 17 61 16 94 94 W 12 19 29.88 1012 3 5 N/A
6:50 pm 18:50 Mostly Cloudy with Rain 63 17 61 16 94 94 VRB 2 4 29.85 1011 2 4 N/A
7:20 pm 19:20 Mostly Cloudy with Light Rain 63 17 61 16 94 94 ESE 3 6 29.88 1012 5 8 N/A
7:50 pm 19:50 Mostly Cloudy with Light Rain 63 17 61 16 94 94 ESE 5 7 29.85 1011 30 48 N/A
8:20 pm 20:20 Mostly Cloudy 63 17 63 17 100 100 VRB 1 2 29.85 1011 30 48 N/A
8:50 pm 20:50 Mostly Cloudy with Drizzle 63 17 63 17 100 100 S 6 9 29.88 1012 30 48 N/A

Powered by AerisWeather